Regional Weather Roundup
Issued by NWS Northern Indiana

Home | Current Version | Previous Version | Text Only | Print | Product List | Glossary Off
Versions: 1 2 3 4 5 6 7 8 9 10 11 12 13 14 15 16 17 18 19 20 21 22 23 24 25 26 27 28 29 30 31 32 33 34 35 36 37 38 39 40 41 42 43 44 45 46 47 48 49 50

000
ASUS43 KIWX 011610
RWRIWX

KIWX WEATHER ROUNDUP
NATIONAL WEATHER SERVICE NORTHERN INDIANA
1200 PM EDT WED APR 01 2015

NOTE: "FAIR" INDICATES FEW OR NO CLOUDS BELOW 12,000 FEET WITH NO
SIGNIFICANT WEATHER AND/OR OBSTRUCTIONS TO VISIBILITY.

* THESE STATIONS ARE NOT UNDER NWS QUALITY CONTROL. THEY ALSO MAY NOT
  REPORT WEATHER SUCH AS PRECIPITATION OR FOG.

INZ001>027-011700-
NORTHERN INDIANA

CITY           SKY/WX    TMP DP  RH WIND       PRES   REMARKS
GARY*          SUNNY     61  30  31 SW14      30.07
VALPARAISO     SUNNY     60  36  40 SW14      30.08F
MICHIGAN CITY* SUNNY     59  30  33 S9        30.08F
LAPORTE*       SUNNY     59  38  45 SW8       30.09F
KNOX*          SUNNY     61  10  13 SW10      30.09F
SOUTH BEND     SUNNY     57  35  43 SW9       30.11F
ELKHART*       SUNNY     57  32  38 SW7       30.12S
GOSHEN         SUNNY     58  37  45 W12       30.11S
MONTICELLO*    SUNNY     60  38  43 SW8       30.10F
LOGANSPORT*    SUNNY     59  36  41 S10       30.12S
ROCHESTER*     SUNNY     61  37  41 SW8       30.11F
WARSAW*        SUNNY     57  36  44 SW7       30.11F
ANGOLA*        SUNNY     57  37  47 W8        30.11S
FORT WAYNE     SUNNY     58  37  45 SW10      30.13S
HUNTINGTON*    SUNNY     58  31  36 SW6       30.12F
PERU/GRISSOM   SUNNY     61  37  40 S12       30.10S
MARION*        SUNNY     56  37  47 S10       30.14S

$$
INZ028>050-011700-
CENTRAL INDIANA

CITY           SKY/WX    TMP DP  RH WIND       PRES   REMARKS
LAFAYETTE      SUNNY     61  36  39 SW10      30.10F
MUNCIE*        SUNNY     57  35  43 SW10      30.14R
INDIANAPOLIS   MOSUNNY   59  33  37 S9        30.11F

$$
MIZ043>046-050>051-056>058-064>065-071>073-077>080-011700-
SOUTHWEST LOWER MICHIGAN

CITY           SKY/WX    TMP DP  RH WIND       PRES   REMARKS
BATTLE CREEK   SUNNY     55  36  48 MISG      30.10S
BENTON HARBOR  SUNNY     54  36  50 SW12      30.10R
COLDWATER*     SUNNY     55  35  47 W7        30.11S
HILLSDALE*     SUNNY     55  37  50 W13       30.11S
HOLLAND        SUNNY     55  37  50 SW5       30.10S
GRAND RAPIDS   MOSUNNY   50  34  54 CALM      30.10S
KALAMAZOO      SUNNY     58  36  43 W7        30.10S
STURGIS*       SUNNY     54  36  50 SW7       30.11R
THREE RIVERS*  FAIR      56  36  47 SW7       30.11S

$$
OHZ001>008-015>018-024>025-011700-
NORTHWEST OHIO

CITY           SKY/WX    TMP DP  RH WIND       PRES   REMARKS
DEFIANCE       SUNNY     53  37  54 SW8       30.14S
FINDLAY        SUNNY     53  36  52 W13       30.13S
TOLEDO EXPRESS SUNNY     51  36  56 SW9       30.13R
TOLEDO METCALF SUNNY     50  36  58 SW13      30.15R
LIMA           SUNNY     54  36  50 W12       30.14S

$$
AND FOR LAKE MICHIGAN COASTAL AND OPEN LAKE BUOY OBSERVATIONS

STATION/POSITION TEMP    WIND        PRES    VSBY  WAVE
                 AIR SEA DIR/SP/G                  HT/PER
                 (F)     (DEG/KT/KT) (MB)    (MI)  (FT/S)
CALUMET HARBOR    58     180/  9/ 13 1016.8F
MICHIGAN CITY     43      20/  7/  8   N/A
BURNS HARBOR      57     180/  9/ 14 1019.0S
SAINT JOSEPH      45     180/  5/  8 1019.6F

$$
&&



USA.gov is the U.S. government's official web portal to all federal, state and local government web resources and services.